Location: Chantarel
(45.1638°N, 1.7873°E)
Time: 14:11:34
(UTC+00:00)

CZ-4 R/B - Pass Details

Date: 03 March 2021
Orbit: 532 x 597 km, 97.7° (Epoch: 16 April)

Event Time Altitude Azimuth Distance (km) Brightness Sun altitude
Rises 19:38:19 0° 210° (SSW) 2,667 5.1 -21.0°
Reaches altitude 10° 19:41:18 10° 237° (WSW) 1,789 4.5 -21.5°
Maximum altitude 19:43:22 14° 269° (W) 1,557 4.6 -21.9°
Drops below altitude 10° 19:45:27 10° 302° (WNW) 1,809 5.0 -22.2°
Sets 19:48:31 0° 328° (NNW) 2,720 5.5 -22.8°
